Regional Weather Roundup
Issued by NWS

Home | Current Version | Previous Version | Text Only | Print | Product List | Glossary Off
Versions: 1 2 3 4 5 6 7 8 9 10 11 12 13 14 15 16 17 18 19 20 21 22 23 24 25 26 27 28 29 30 31 32 33 34 35 36 37 38 39 40 41 42 43 44 45 46 47 48 49 50

557
ASUS43 KIND 182209
RWRIN

WEATHER ROUNDUP FOR INDIANA
NATIONAL WEATHER SERVICE INDIANAPOLIS IN
500 PM EST SAT NOV 18 2017

NOTE: "FAIR" INDICATES FEW OR NO CLOUDS BELOW 12,000 FEET WITH NO
SIGNIFICANT WEATHER AND/OR OBSTRUCTIONS TO VISIBILITY.

* - STATION DOES NOT REPORT WEATHER SUCH AS PRECIPITATION OR FOG.

+ - STATION NOT QUALITY CONTROLLED BY THE NATIONAL WEATHER SERVICE.
    USE DATA WITH CAUTION...ESPECIALLY DEWPOINT AND RELATIVE
    HUMIDITY OBSERVATIONS.

INZ001>003-010>013-019-020-182300-
NORTHWEST INDIANA

CITY           SKY/WX    TMP DP  RH WIND       PRES   REMARKS
GARY /AIRPORT/ LGT RAIN  41  39  93 N28G46    29.54R
KNOX *+        CLOUDY    41  39  93 N25G32    29.44S
LA PORTE +     LGT RAIN  42  40  92 N22G39    29.46R
MICHIGAN CITY+ LGT RAIN  41  41 100 N25G35    29.49R
MONTICELLO +   LGT RAIN  41  39  94 N23G32    29.42R
RENSSELAER +   LGT RAIN  37  34  87 NW18G30   29.49R WCI  27
VALPARAISO     LGT RAIN  43  40  89 N17G35    29.48R

$$

LMZ046-743>745-182300-
SOUTHERN LAKE MICHIGAN

STATION/POSITION TIME  TEMP    WIND        PRES    WAVE
                       AIR SEA DIR/SP/G            HT
                 (UTC) (F)     (DEG/KT/KT) (MB)    (FT)
BURNS HARBOR     2140   43     350/ 31/ 39  999.3R
MICHIGAN CITY    2140   43     340/ 43/ 48   N/A

$$

INZ004-005-014>016-021>024-182300-
NORTH CENTRAL INDIANA

CITY           SKY/WX    TMP DP  RH WIND       PRES   REMARKS
GOSHEN         LGT RAIN  41  36  82 NW23G29   29.40R
LOGANSPORT +   RAIN      41  37  87 N21G31    29.40R
PERU/GRISSOM   LGT RAIN  42  42 100 NW24G32   29.38R
ROCHESTER +    LGT RAIN  43  41  93 N21G35    29.40S
SOUTH BEND     LGT RAIN  40  39  97 N21G33    29.45R WCI  30
WARSAW +       LGT RAIN  41  39  93 NW13G21   29.39R

$$

INZ006>009-017-018-025>027-182300-
NORTHEAST INDIANA

CITY           SKY/WX    TMP DP  RH WIND       PRES   REMARKS
AUBURN +       LGT RAIN  43  41  93 N15G23    29.31R
FORT WAYNE     LGT RAIN  45  42  89 N22G29    29.30S
HUNTINGTON +   CLOUDY    42  41  97 NW15G22   29.34R
KENDALLVILLE + DRIZZLE  N/A N/A N/A N18G24    29.34R

$$

INZ028-029-035-036-043>045-051>053-182300-
WEST CENTRAL INDIANA

CITY           SKY/WX    TMP DP  RH WIND       PRES   REMARKS
CRAWFORDSVL +  CLOUDY    39  39 100 NW26G35     N/A  WCI  28
GREENCASTLE +  CLOUDY    43  39  87 NW14G30   29.42R FOG
LAFAYETTE      LGT RAIN  39  37  92 N23G37    29.45R WCI  28
TERRE HAUTE    CLOUDY    44  39  82 NW16G30   29.48R

$$

INZ030>032-037>040-046>048-054>057-064-065-182300-
CENTRAL INDIANA

CITY           SKY/WX    TMP DP  RH WIND       PRES   REMARKS
CP ATTERBURY + CLOUDY    46  45  93 NW22G32   29.33R
COLUMBUS       LGT RAIN  50  46  87 NW26G40   29.32F
FRANKFORT +    CLOUDY    45  42  89 N23G35    29.41R FOG
GREENWOOD *+   CLOUDY    48  47  95 N17       29.35R
INDIANAPOLIS   CLOUDY    45  41  86 N25G38    29.37R
-EAGLE CREEK   CLOUDY    45  40  82 N17G31    29.37R
KOKOMO +       CLOUDY    43  40  89 NW18G28   29.38R
MARION +       CLOUDY    42  42  99 N14G29    29.34R FOG
MT COMFORT *+  CLOUDY    43  43 100 N21G33    29.35R
SHELBYVILLE    CLOUDY    47  43  86 NW23G38   29.31R
ZIONSVILLE +   CLOUDY    42  41  95 N25       29.37R

$$

INZ033-034-041-042-049-050-058-059-182300-
EAST CENTRAL INDIANA

CITY           SKY/WX    TMP DP  RH WIND       PRES   REMARKS
MUNCIE         CLOUDY    46  42  86 NW28G40   29.30R
RICHMOND +     LGT RAIN  55  55 100 NW23      29.25S

$$

INZ060-061-067>069-081>083-085>088-182300-
SOUTHWEST INDIANA

CITY           SKY/WX    TMP DP  RH WIND       PRES   REMARKS
EVANSVILLE     CLOUDY    47  43  86 NW20G29   29.51R
HUNTINGBURG +  CLOUDY    48  46  93 NW18G30   29.44R
WASHINGTON +   CLOUDY    46  43  90 NW26G37   29.45R

$$

INZ062-063-066-070>080-084-089>092-182300-
SOUTH CENTRAL AND SOUTHEAST INDIANA

CITY           SKY/WX    TMP DP  RH WIND       PRES   REMARKS
BLOOMINGTON    CLOUDY    47  42  83 N14G30    29.38R
MADISON *+     CLOUDY    61  59  94 SW12G18   29.30F
SEYMOUR +      RAIN      63  61  94 W15G24    29.28R

$$





USA.gov is the U.S. government's official web portal to all federal, state and local government web resources and services.